Terminal Aerodrome Forecast
Issued by NWS

Home | Current Version | Previous Version | Text Only | Print | Product List | Glossary On
Versions: 1 2 3 4 5 6 7 8 9 10 11 12 13 14 15 16 17 18
000
FTUS44 KOHX 301100
TAFCKV
TAF
KCKV 301122Z 3012/3112 00000KT P6SM SCT200
     FM301500 31006KT P6SM FEW070 SCT200=

USA.gov is the U.S. government's official web portal to all federal, state and local government web resources and services.